Tracking 30402 objects as of 12-May-2025
HD Live streaming from Space Station
objects crossing your sky now

CZ-2C R/B

Track CZ-2C R/B now!
10-day predictions


NORAD ID: 58916
Int'l Code: 2024-023M
Perigee: 598.4 km
Apogee: 733.6 km
Inclination: 49.9 °
Period: 97.9 minutes
Semi major axis: 7037 km
RCS: Unknown
Launch date: February 2, 2024
Source: People's Republic of China (PRC)
Launch site: Xichang Space Center, China (XSC)

Note: This is a ROCKET BODY
Your satellite tracking list
Your tracking list is empty




NASA's NSSDC Master Catalog

Two Line Element Set (TLE):
1 58916U 24023M   25132.14122002  .00000361  00000-0  88982-4 0  9994
2 58916  49.8957 127.8766 0096051 188.7533 171.1727 14.70681611 68269
Source of the keplerian elements: AFSPC